User: anonymous   Login
Location: Fort Wayne
(41.1310°N, 85.1290°W)
Time: 09:32:03
(UTC-05:00)
Language:

OAO 2 Rocket - Orbit

View from above orbital plane
View from above orbital plane
View from above satellite
View from above satellite

Ground track
Ground track

The orbit data is extracted from the following two-line orbital elements,

1 03598U 68110B   15063.19929524  .00000692  00000-0  16402-3 0  9990
2 03598 034.9952 016.9522 0050231 287.5875 071.9335 14.53938060444714
Epoch (UTC): 04 March 2015 04:46:59
Eccentricity: 0.0050231
inclination: 34.9952°
perigee height: 677 km
apogee height: 748 km
right ascension of ascending node: 16.9522°
argument of perigee: 287.5875°
revolutions per day: 14.53938060
mean anomaly at epoch: 71.9335°
orbit number at epoch: 44471

The dashed part of the orbit path shows where the satellite is in the earth's shadow,  

DLR